period_start,C,m1,H,J0,J1,J2,J3,J4,J5,JA,JB,JC,JD,JJ,JK,JN,#
2018-05-26 00:00:35,0.01,0.16,0.00,31.56,34.80,37.33,13.51,47.40,1017.59,1993.40,3310.63,2990.98,3439.97,600.08,579.94,5.98,0000 0000 0000 0000 000000
2018-05-26 00:05:36,0.01,0.16,0.00,31.60,34.80,37.34,13.46,47.41,1017.59,1993.43,3310.31,2990.97,3439.89,599.77,579.64,6.03,0000 0000 0000 0000 000000
2018-05-26 00:10:38,0.00,0.16,0.00,31.59,34.80,37.35,13.56,47.40,1017.60,1993.35,3310.06,2990.87,3439.63,600.19,579.98,6.08,0000 0000 0000 0000 000000
2018-05-26 00:15:39,-0.00,0.16,0.00,31.60,34.81,37.35,13.51,47.32,1017.61,1993.16,3310.00,2990.51,3439.13,599.90,579.66,6.13,0000 0000 0000 0000 000000
2018-05-26 00:20:40,0.00,0.16,0.00,31.62,34.82,37.35,13.49,47.43,1017.62,1993.11,3310.00,2990.26,3439.05,599.76,579.45,6.18,0000 0000 0000 0000 000000
2018-05-26 00:25:41,0.00,0.16,0.00,31.64,34.82,37.36,13.50,47.22,1017.71,1993.07,3310.00,2990.09,3439.01,600.04,579.85,6.23,0000 0000 0000 0000 000000
2018-05-26 00:30:43,0.00,0.16,0.00,31.64,34.83,37.37,13.57,47.39,1017.94,1993.09,3309.85,2990.03,3439.00,600.12,580.20,6.28,0000 0000 0000 0000 000000
2018-05-26 00:35:44,0.00,0.16,0.00,31.65,34.84,37.38,13.54,47.29,1018.04,1993.05,3309.20,2990.00,3438.92,600.39,580.32,6.33,0000 0000 0000 0000 000000
2018-05-26 00:40:45,0.00,0.16,0.00,31.68,34.85,37.39,13.52,47.33,1018.08,1993.02,3309.01,2990.00,3438.53,600.02,579.83,6.38,0000 0000 0000 0000 000000
2018-05-26 00:45:46,0.00,0.16,0.00,31.68,34.85,37.39,13.53,47.26,1018.08,1993.02,3309.00,2989.97,3438.19,600.08,579.97,6.43,0000 0000 0000 0000 000000
2018-05-26 00:50:48,0.01,0.16,0.00,31.69,34.87,37.40,13.52,47.39,1018.09,1993.02,3308.98,2989.84,3438.06,600.01,579.96,6.48,0000 0000 0000 0000 000000
2018-05-26 00:55:49,0.01,0.16,0.00,31.70,34.87,37.40,13.49,47.42,1018.09,1993.01,3308.85,2989.51,3438.00,599.59,579.49,6.53,0000 0000 0000 0000 000000
2018-05-26 01:00:51,0.02,0.17,0.00,31.70,34.88,37.41,13.53,47.42,1018.11,1993.01,3308.29,2989.14,3437.99,600.13,579.97,6.58,0000 0000 0000 0000 000000
2018-05-26 01:05:52,0.00,0.17,0.00,31.71,34.90,37.42,13.50,47.44,1018.16,1993.00,3308.12,2989.05,3437.99,599.68,579.59,6.63,0000 0000 0000 0000 000000
2018-05-26 01:10:53,0.00,0.17,0.00,31.71,34.90,37.44,13.53,47.46,1018.29,1993.00,3308.00,2989.01,3437.96,600.03,580.01,6.68,0000 0000 0000 0000 000000
2018-05-26 01:15:55,0.00,0.17,0.00,31.70,34.90,37.46,13.60,47.43,1018.43,1993.01,3308.00,2989.00,3437.90,600.11,580.07,6.73,0000 0000 0000 0000 000000
2018-05-26 01:20:56,0.01,0.17,0.00,31.68,34.92,37.47,13.46,47.40,1018.56,1993.00,3307.98,2989.00,3437.61,600.05,580.22,6.78,0000 0000 0000 0000 000000
2018-05-26 01:25:57,0.01,0.17,0.00,31.67,34.92,37.49,13.49,47.41,1018.57,1993.00,3307.79,2988.99,3437.16,599.86,579.94,6.83,0000 0000 0000 0000 000000
2018-05-26 01:30:59,0.01,0.17,0.00,31.66,34.92,37.48,13.57,47.35,1018.57,1993.00,3307.24,2988.95,3437.02,600.25,580.34,6.88,0000 0000 0000 0000 000000
2018-05-26 01:36:00,0.01,0.17,0.00,31.68,34.92,37.49,13.57,47.36,1018.57,1993.00,3307.02,2988.67,3437.00,599.95,580.20,6.93,0000 0000 0000 0000 000000
2018-05-26 01:41:02,0.01,0.17,0.00,31.67,34.92,37.49,13.52,47.35,1018.57,1993.00,3306.92,2988.09,3436.94,599.77,580.03,6.98,0000 0000 0000 0000 000000
2018-05-26 01:46:03,0.01,0.17,0.00,31.68,34.92,37.49,13.50,47.44,1018.59,1993.00,3306.58,2988.00,3436.74,599.91,580.16,7.03,0000 0000 0000 0000 000000
2018-05-26 01:51:05,0.01,0.17,0.00,31.69,34.93,37.49,13.45,47.37,1018.69,1992.99,3306.06,2988.00,3436.22,599.66,579.91,7.08,0000 0000 0000 0000 000000
2018-05-26 01:56:06,0.00,0.17,0.00,31.67,34.93,37.48,13.52,47.38,1019.00,1992.99,3306.01,2988.00,3436.04,599.71,580.21,7.13,0000 0000 0000 0000 000000
2018-05-26 02:01:08,0.00,0.17,0.00,31.68,34.94,37.49,13.54,47.27,1019.05,1992.99,3306.00,2987.99,3436.02,599.82,580.20,7.18,0000 0000 0000 0000 000000
2018-05-26 02:06:09,0.00,0.17,0.00,31.69,34.94,37.50,13.58,47.25,1019.06,1992.99,3306.00,2987.99,3436.00,600.19,580.64,7.23,0000 0000 0000 0000 000000
2018-05-26 02:11:10,0.00,0.17,0.00,31.70,34.95,37.49,13.46,47.39,1019.06,1992.99,3306.00,2987.99,3436.00,599.83,580.26,7.28,0000 0000 0000 0000 000000
2018-05-26 02:16:12,0.00,0.17,0.00,31.68,34.95,37.49,13.50,47.33,1019.06,1992.99,3306.00,2987.98,3436.00,600.03,580.51,7.33,0000 0000 0000 0000 000000
2018-05-26 02:21:13,0.00,0.17,0.00,31.70,34.95,37.51,13.52,47.31,1019.06,1992.99,3305.88,2987.97,3435.99,599.85,580.17,7.38,0000 0000 0000 0000 000000
2018-05-26 02:26:14,0.02,0.17,0.00,31.69,34.95,37.51,13.56,47.38,1019.07,1992.96,3305.27,2987.57,3435.74,599.62,580.07,7.43,0000 0000 0000 0000 000000
2018-05-26 02:31:15,0.02,0.17,0.00,31.67,34.95,37.51,13.58,47.30,1019.11,1992.95,3305.01,2987.13,3435.12,599.72,580.20,7.48,0000 0000 0000 0000 000000
2018-05-26 02:36:17,-0.00,0.17,0.00,31.69,34.95,37.51,13.45,47.26,1019.46,1992.90,3304.94,2987.01,3435.00,599.72,580.36,7.53,0000 0000 0000 0000 000000
2018-05-26 02:41:18,0.01,0.17,0.00,31.67,34.95,37.51,13.45,47.27,1019.54,1992.91,3304.43,2987.00,3435.00,599.49,580.31,7.58,0000 0000 0000 0000 000000
2018-05-26 02:46:19,0.01,0.17,0.00,31.66,34.95,37.54,13.52,47.33,1019.55,1992.88,3304.02,2986.98,3434.82,599.72,580.54,7.63,0000 0000 0000 0000 000000
2018-05-26 02:51:21,0.03,0.18,0.00,31.69,34.95,37.52,13.57,47.24,1019.55,1992.87,3303.72,2986.51,3434.09,599.69,580.33,7.68,0000 0000 0000 0000 000000
2018-05-26 02:56:22,0.01,0.18,0.00,31.68,34.95,37.53,13.52,47.25,1019.55,1992.79,3303.06,2986.04,3433.99,600.04,580.77,7.74,0000 0000 0000 0000 000000
2018-05-26 03:01:23,0.01,0.18,0.00,31.68,34.95,37.54,13.59,47.42,1019.56,1992.68,3302.62,2986.00,3433.38,599.95,580.69,7.79,0000 0000 0000 0000 000000
2018-05-26 03:06:25,0.01,0.18,0.00,31.67,34.95,37.54,13.58,47.33,1019.56,1992.62,3302.04,2985.81,3433.01,600.18,580.89,7.84,0000 0000 0000 0000 000000
2018-05-26 03:11:26,0.02,0.18,0.00,31.66,34.95,37.53,13.57,47.23,1019.57,1992.62,3301.68,2985.16,3432.92,600.30,581.04,7.89,0000 0000 0000 0000 000000
2018-05-26 03:16:27,0.03,0.18,0.00,31.70,34.95,37.52,13.55,47.23,1019.57,1992.66,3301.06,2985.00,3432.33,600.09,580.82,7.94,0000 0000 0000 0000 000000
2018-05-26 03:21:28,0.02,0.18,0.00,31.72,34.95,37.51,13.57,47.31,1019.57,1992.81,3300.96,2985.00,3432.02,599.76,580.44,7.99,0000 0000 0000 0000 000000
2018-05-26 03:26:30,0.02,0.18,0.00,31.70,34.95,37.51,13.57,47.27,1019.78,1992.75,3300.18,2984.78,3431.96,600.06,581.05,8.04,0000 0000 0000 0000 000000
2018-05-26 03:31:31,0.03,0.18,0.00,31.70,34.95,37.52,13.55,47.39,1019.97,1992.82,3299.97,2984.22,3431.41,599.67,580.62,8.09,0000 0000 0000 0000 000000
2018-05-26 03:36:32,0.02,0.18,0.00,31.69,34.95,37.53,13.55,47.26,1020.03,1992.92,3299.49,2984.01,3431.04,600.03,580.93,8.14,0000 0000 0000 0000 000000
2018-05-26 03:41:34,0.00,0.19,0.00,31.69,34.95,37.53,13.49,47.33,1020.03,1992.87,3298.97,2983.98,3430.90,600.01,580.99,8.19,0000 0000 0000 0000 000000
2018-05-26 03:46:35,0.03,0.19,0.00,31.69,34.95,37.55,13.57,47.48,1020.03,1992.79,3298.24,2983.57,3430.15,600.15,581.16,8.24,0000 0000 0000 0000 000000
2018-05-26 03:51:36,0.01,0.19,0.00,31.67,34.94,37.54,13.61,47.31,1020.03,1992.86,3297.99,2983.08,3430.00,600.37,581.37,8.29,0000 0000 0000 0000 000000
2018-05-26 03:56:37,0.01,0.19,0.00,31.65,34.93,37.54,13.55,47.37,1020.04,1992.85,3297.55,2983.00,3429.92,600.06,581.12,8.34,0000 0000 0000 0000 000000
2018-05-26 04:01:38,0.01,0.19,0.00,31.64,34.92,37.52,13.51,47.43,1020.05,1992.89,3297.03,2982.99,3429.29,599.91,580.98,8.39,0000 0000 0000 0000 000000
2018-05-26 04:06:39,0.02,0.19,0.00,31.63,34.92,37.53,13.48,47.32,1020.12,1992.86,3296.81,2982.64,3429.01,599.89,581.05,8.44,0000 0000 0000 0000 000000
2018-05-26 04:11:41,0.03,0.19,0.00,31.64,34.92,37.53,13.63,47.33,1020.43,1992.89,3296.10,2982.09,3428.90,599.87,581.15,8.49,0000 0000 0000 0000 000000
2018-05-26 04:16:42,0.01,0.19,0.00,31.62,34.92,37.53,13.60,47.48,1020.52,1992.91,3295.98,2982.00,3428.37,600.40,581.76,8.54,0000 0000 0000 0000 000000
2018-05-26 04:21:43,0.01,0.19,0.00,31.61,34.92,37.52,13.59,47.34,1020.52,1992.90,3295.55,2981.98,3428.03,600.31,581.77,8.59,0000 0000 0000 0000 000000
2018-05-26 04:26:45,0.02,0.19,0.00,31.58,34.92,37.51,13.55,47.33,1020.52,1992.94,3295.01,2981.84,3428.00,600.04,581.62,8.64,0000 0000 0000 0000 000000
2018-05-26 04:31:46,0.02,0.19,0.00,31.57,34.90,37.52,13.53,47.30,1020.52,1992.95,3294.77,2981.26,3427.72,599.62,581.18,8.69,0000 0000 0000 0000 000000
2018-05-26 04:36:47,0.01,0.20,0.00,31.55,34.90,37.50,13.59,47.38,1020.52,1992.92,3294.11,2981.02,3427.14,599.97,581.47,8.74,0000 0000 0000 0000 000000
2018-05-26 04:41:48,0.01,0.20,0.00,31.56,34.90,37.52,13.57,47.48,1020.52,1992.96,3294.01,2981.02,3427.03,600.03,581.46,8.79,0000 0000 0000 0000 000000
2018-05-26 04:46:49,0.00,0.20,0.00,31.56,34.90,37.50,13.61,47.33,1020.52,1992.98,3294.00,2981.00,3427.00,600.04,581.58,8.84,0000 0000 0000 0000 000000
2018-05-26 04:51:51,0.00,0.20,0.00,31.56,34.90,37.50,13.57,47.46,1020.52,1992.96,3293.97,2981.00,3427.00,599.94,581.45,8.89,0000 0000 0000 0000 000000
2018-05-26 04:56:52,0.01,0.20,0.00,31.58,34.88,37.49,13.55,47.38,1020.52,1992.93,3293.68,2980.98,3426.96,599.95,581.39,8.94,0000 0000 0000 0000 000000
2018-05-26 05:01:53,0.01,0.20,0.00,31.56,34.88,37.50,13.57,47.38,1020.52,1992.93,3293.29,2980.97,3426.94,600.18,581.69,8.99,0000 0000 0000 0000 000000
2018-05-26 05:06:54,0.01,0.20,0.00,31.52,34.87,37.49,13.55,47.34,1020.52,1992.98,3293.06,2980.93,3426.85,599.95,581.39,9.04,0000 0000 0000 0000 000000
2018-05-26 05:11:56,0.01,0.20,0.00,31.51,34.87,37.51,13.57,47.34,1020.52,1992.97,3293.00,2980.78,3426.64,599.86,581.46,9.09,0000 0000 0000 0000 000000
2018-05-26 05:16:57,0.01,0.20,0.00,31.53,34.87,37.47,13.59,47.39,1020.53,1992.99,3293.00,2980.60,3426.36,600.18,581.85,9.14,0000 0000 0000 0000 000000
2018-05-26 05:21:58,0.01,0.20,0.00,31.53,34.85,37.46,13.60,47.45,1020.53,1992.98,3292.99,2980.33,3426.12,600.30,581.95,9.19,0000 0000 0000 0000 000000
2018-05-26 05:26:59,-0.00,0.20,0.00,31.54,34.85,37.46,13.61,47.37,1020.56,1992.99,3292.97,2980.36,3426.07,600.34,581.90,9.24,0000 0000 0000 0000 000000
2018-05-26 05:32:01,0.00,0.20,0.00,31.53,34.85,37.45,13.54,47.40,1020.77,1992.99,3292.93,2980.15,3426.01,600.08,581.84,9.29,0000 0000 0000 0000 000000
2018-05-26 05:37:02,0.00,0.20,0.00,31.52,34.85,37.42,13.60,47.38,1020.91,1992.99,3292.74,2980.04,3426.00,600.52,582.33,9.34,0000 0000 0000 0000 000000
2018-05-26 05:42:03,-0.00,0.20,0.00,31.50,34.85,37.43,13.55,47.42,1020.97,1992.99,3292.54,2980.07,3426.00,599.83,581.71,9.39,0000 0000 0000 0000 000000
2018-05-26 05:47:04,-0.00,0.20,0.00,31.50,34.83,37.44,13.60,47.33,1020.98,1992.99,3292.57,2980.11,3426.00,600.37,582.04,9.44,0000 0000 0000 0000 000000
2018-05-26 05:52:06,0.01,0.20,0.00,31.51,34.83,37.44,13.54,47.44,1021.01,1992.99,3292.30,2980.04,3426.00,599.88,581.75,9.49,0000 0000 0000 0000 000000
2018-05-26 05:57:07,0.00,0.20,0.00,31.50,34.82,37.45,13.60,47.41,1021.01,1992.99,3292.04,2980.00,3426.00,600.59,582.44,9.54,0000 0000 0000 0000 000000
2018-05-26 06:02:08,0.00,0.20,0.00,31.49,34.82,37.45,13.60,47.33,1021.01,1992.99,3292.00,2980.01,3426.00,600.00,581.94,9.59,0000 0000 0000 0000 000000
2018-05-26 06:07:09,0.00,0.20,0.00,31.47,34.82,37.44,13.65,47.45,1021.02,1992.99,3292.00,2980.00,3426.00,600.41,582.42,9.64,0000 0000 0000 0000 000000
2018-05-26 06:12:10,0.00,0.20,0.00,31.49,34.81,37.42,13.63,47.38,1021.13,1992.99,3292.00,2980.00,3425.95,600.18,582.05,9.69,0000 0000 0000 0000 000000
2018-05-26 06:17:12,0.00,0.20,0.00,31.46,34.80,37.42,13.61,47.35,1021.15,1992.99,3291.91,2980.00,3425.77,600.31,582.41,9.74,0000 0000 0000 0000 000000
2018-05-26 06:22:13,0.01,0.20,0.00,31.46,34.80,37.45,13.64,47.42,1021.41,1992.99,3291.44,2979.97,3425.34,600.20,582.47,9.79,0000 0000 0000 0000 000000
2018-05-26 06:27:15,0.01,0.20,0.00,31.48,34.80,37.42,13.54,47.36,1021.50,1992.99,3291.12,2979.94,3425.15,599.85,582.16,9.84,0000 0000 0000 0000 000000
2018-05-26 06:32:16,0.01,0.20,0.00,31.45,34.80,37.42,13.60,47.42,1021.50,1993.00,3291.02,2979.80,3425.04,600.06,582.36,9.89,0000 0000 0000 0000 000000
2018-05-26 06:37:18,0.00,0.20,0.00,31.45,34.79,37.40,13.53,47.25,1021.50,1993.00,3291.00,2979.45,3425.00,599.83,582.12,9.94,0000 0000 0000 0000 000000
2018-05-26 06:42:19,0.01,0.20,0.00,31.46,34.78,37.39,13.52,47.25,1021.49,1993.00,3290.97,2979.12,3425.00,599.35,581.76,9.99,0000 0000 0000 0000 000000
2018-05-26 06:47:20,0.00,0.20,0.00,31.43,34.77,37.38,13.62,47.38,1021.50,1993.00,3290.81,2979.02,3424.99,599.99,582.24,10.04,0000 0000 0000 0000 000000
2018-05-26 06:52:21,0.01,0.20,0.00,31.43,34.77,37.36,13.53,47.33,1021.50,1993.00,3290.28,2979.00,3424.94,599.75,582.04,10.10,0000 0000 0000 0000 000000
2018-05-26 06:57:22,0.00,0.20,0.00,31.43,34.77,37.35,13.59,47.23,1021.52,1993.00,3290.07,2979.00,3424.90,599.93,582.26,10.15,0000 0000 0000 0000 000000
2018-05-26 07:02:23,0.00,0.20,0.00,31.42,34.77,37.34,13.57,47.39,1021.52,1993.01,3290.00,2979.00,3424.67,600.11,582.45,10.20,0000 0000 0000 0000 000000
2018-05-26 07:07:25,0.00,0.21,0.00,31.44,34.77,37.35,13.59,47.29,1021.52,1993.00,3290.00,2978.99,3424.29,599.68,582.00,10.25,0000 0000 0000 0000 000000
2018-05-26 07:12:26,0.00,0.21,0.00,31.43,34.77,37.34,13.61,47.24,1021.51,1993.00,3290.00,2978.98,3424.06,600.24,582.56,10.30,0000 0000 0000 0000 000000
2018-05-26 07:17:27,0.00,0.21,0.00,31.42,34.76,37.33,13.60,47.39,1021.52,1993.00,3289.93,2978.92,3424.01,599.87,582.28,10.35,0000 0000 0000 0000 000000
2018-05-26 07:22:28,0.02,0.21,0.00,31.42,34.75,37.33,13.63,47.38,1021.52,1993.00,3289.50,2978.59,3424.00,599.91,582.24,10.40,0000 0000 0000 0000 000000
2018-05-26 07:27:29,0.01,0.21,0.00,31.43,34.75,37.31,13.53,47.29,1021.51,1993.00,3289.06,2978.26,3424.00,600.00,582.52,10.45,0000 0000 0000 0000 000000
2018-05-26 07:32:31,0.00,0.21,0.00,31.43,34.75,37.34,13.53,47.28,1021.52,1993.00,3289.00,2978.06,3423.97,599.74,582.09,10.50,0000 0000 0000 0000 000000
2018-05-26 07:37:32,0.00,0.21,0.00,31.45,34.75,37.31,13.55,47.26,1021.58,1993.01,3289.00,2978.01,3423.91,599.80,582.17,10.55,0000 0000 0000 0000 000000
2018-05-26 07:42:33,0.00,0.21,0.00,31.44,34.75,37.32,13.58,47.37,1021.64,1993.03,3289.00,2978.00,3423.78,599.92,582.26,10.60,0000 0000 0000 0000 000000
2018-05-26 07:47:35,0.00,0.21,0.00,31.45,34.75,37.30,13.56,47.33,1021.66,1993.04,3288.94,2978.00,3423.39,600.13,582.51,10.65,0000 0000 0000 0000 000000
2018-05-26 07:52:36,0.01,0.21,0.00,31.49,34.75,37.28,13.61,47.42,1021.65,1993.03,3288.71,2978.00,3423.09,599.97,582.27,10.70,0000 0000 0000 0000 000000
2018-05-26 07:57:37,0.01,0.21,0.00,31.50,34.75,37.28,13.61,47.41,1021.81,1993.07,3288.23,2977.99,3423.02,600.32,582.64,10.75,0000 0000 0000 0000 000000
2018-05-26 08:02:39,0.00,0.21,0.00,31.50,34.75,37.28,13.60,47.38,1021.85,1993.05,3288.03,2977.87,3423.00,600.43,582.74,10.80,0000 0000 0000 0000 000000
2018-05-26 08:07:40,0.01,0.21,0.00,31.51,34.77,37.26,13.59,47.42,1021.92,1993.04,3288.00,2977.62,3422.99,599.88,582.25,10.85,0000 0000 0000 0000 000000
2018-05-26 08:12:41,0.01,0.21,0.00,31.53,34.77,37.28,13.54,47.43,1021.96,1993.01,3288.00,2977.22,3422.81,599.99,582.38,10.90,0000 0000 0000 0000 000000
2018-05-26 08:17:43,0.01,0.21,0.00,31.55,34.77,37.29,13.59,47.38,1021.97,1993.00,3287.94,2977.02,3422.30,600.03,582.41,10.95,0000 0000 0000 0000 000000
2018-05-26 08:22:44,0.01,0.21,0.00,31.57,34.78,37.29,13.53,47.35,1021.99,1993.00,3287.57,2977.00,3422.03,599.86,582.31,11.00,0000 0000 0000 0000 000000
2018-05-26 08:27:45,0.00,0.21,0.00,31.57,34.79,37.30,13.57,47.48,1021.99,1993.00,3287.26,2977.00,3422.00,600.35,582.71,11.05,0000 0000 0000 0000 000000
2018-05-26 08:32:47,0.00,0.21,0.00,31.58,34.80,37.31,13.60,47.36,1021.99,1993.00,3287.07,2976.96,3422.00,600.02,582.35,11.10,0000 0000 0000 0000 000000
2018-05-26 08:37:48,0.00,0.21,0.00,31.62,34.80,37.30,13.58,47.42,1021.99,1993.00,3287.01,2976.95,3421.99,599.56,581.71,11.15,0000 0000 0000 0000 000000
2018-05-26 08:42:49,0.00,0.21,0.00,31.64,34.81,37.32,13.54,47.42,1021.99,1993.00,3287.00,2976.85,3421.98,599.95,582.09,11.20,0000 0000 0000 0000 000000
2018-05-26 08:47:51,0.01,0.21,0.00,31.62,34.82,37.32,13.60,47.36,1021.99,1993.00,3287.00,2976.71,3421.92,600.03,582.26,11.25,0000 0000 0000 0000 000000
2018-05-26 08:52:52,0.01,0.21,0.00,31.62,34.82,37.34,13.58,47.52,1021.99,1993.00,3286.95,2976.35,3421.67,600.15,582.29,11.30,0000 0000 0000 0000 000000
2018-05-26 08:57:53,0.01,0.21,0.00,31.64,34.82,37.34,13.56,47.36,1021.99,1993.00,3286.76,2976.11,3421.42,599.82,581.96,11.35,0000 0000 0000 0000 000000
2018-05-26 09:02:54,0.01,0.21,0.00,31.65,34.84,37.35,13.57,47.47,1021.99,1993.00,3286.49,2976.06,3421.16,599.62,581.78,11.40,0000 0000 0000 0000 000000
2018-05-26 09:07:55,0.00,0.21,0.00,31.66,34.85,37.36,13.48,47.37,1021.99,1993.00,3286.20,2976.01,3421.06,599.84,582.02,11.45,0000 0000 0000 0000 000000
2018-05-26 09:12:57,0.00,0.21,0.00,31.67,34.85,37.38,13.53,47.28,1021.99,1993.00,3286.04,2976.00,3421.00,600.17,582.26,11.50,0000 0000 0000 0000 000000
2018-05-26 09:17:58,0.00,0.21,0.00,31.66,34.85,37.38,13.54,47.38,1021.99,1992.99,3286.01,2976.00,3421.00,599.59,581.74,11.55,0000 0000 0000 0000 000000
2018-05-26 09:22:59,0.00,0.21,0.00,31.65,34.86,37.39,13.59,47.49,1021.99,1992.99,3286.00,2976.00,3421.00,600.02,582.10,11.60,0000 0000 0000 0000 000000
2018-05-26 09:28:00,-0.00,0.21,0.00,31.66,34.87,37.40,13.58,47.48,1021.99,1992.94,3286.00,2975.99,3420.98,599.61,581.83,11.65,0000 0000 0000 0000 000000
2018-05-26 09:33:01,0.00,0.21,0.00,31.68,34.87,37.39,13.57,47.46,1022.00,1992.94,3285.98,2975.98,3420.93,600.07,582.21,11.70,0000 0000 0000 0000 000000
2018-05-26 09:38:02,-0.00,0.21,0.00,31.72,34.88,37.40,13.59,47.27,1022.00,1992.92,3285.96,2975.97,3420.86,600.22,582.26,11.75,0000 0000 0000 0000 000000
2018-05-26 09:43:04,0.00,0.21,0.00,31.72,34.89,37.40,13.53,47.35,1022.00,1992.90,3285.93,2975.93,3420.68,599.81,581.84,11.80,0000 0000 0000 0000 000000
2018-05-26 09:48:05,0.01,0.22,0.00,31.73,34.90,37.41,13.50,47.38,1022.00,1992.87,3285.79,2975.78,3420.36,599.54,581.60,11.85,0000 0000 0000 0000 000000
2018-05-26 09:53:06,0.01,0.22,0.00,31.74,34.90,37.42,13.56,47.35,1022.00,1992.75,3285.25,2975.31,3420.08,600.20,582.32,11.90,0000 0000 0000 0000 000000
2018-05-26 09:58:08,0.00,0.22,0.00,31.75,34.90,37.43,13.51,47.31,1022.01,1992.72,3285.00,2975.02,3420.00,599.70,581.65,11.95,0000 0000 0000 0000 000000
2018-05-26 10:03:09,0.00,0.22,0.00,31.75,34.92,37.44,13.55,47.37,1022.01,1992.69,3285.00,2975.01,3420.00,599.92,581.94,12.00,0000 0000 0000 0000 000000
2018-05-26 10:08:10,-0.01,0.22,0.00,31.75,34.92,37.45,13.48,47.34,1022.04,1992.73,3285.00,2975.02,3420.00,599.96,582.00,12.05,0000 0000 0000 0000 000000
2018-05-26 10:13:11,-0.00,0.22,0.00,31.75,34.92,37.47,13.57,47.33,1022.15,1992.72,3285.00,2975.01,3420.00,600.01,582.18,12.10,0000 0000 0000 0000 000000
2018-05-26 10:18:12,0.01,0.22,0.00,31.76,34.93,37.48,13.61,47.25,1022.35,1992.71,3284.98,2975.00,3420.00,600.24,582.48,12.15,0000 0000 0000 0000 000000
2018-05-26 10:23:14,-0.01,0.22,0.00,31.74,34.95,37.48,13.57,47.37,1022.27,1992.64,3284.94,2975.00,3419.99,599.86,582.00,12.20,0000 0000 0000 0000 000000
2018-05-26 10:28:15,-0.02,0.22,0.00,31.75,34.95,37.47,13.59,47.26,1022.12,1992.40,3284.76,2974.98,3419.83,600.17,582.15,12.25,0000 0000 0000 0000 000000
2018-05-26 10:33:17,0.00,0.22,0.00,31.79,34.95,37.46,13.58,47.23,1022.11,1992.23,3284.45,2974.95,3419.54,599.83,581.87,12.30,0000 0000 0000 0000 000000
2018-05-26 10:38:18,-0.00,0.22,0.00,31.82,34.96,37.45,13.58,47.25,1022.03,1992.17,3284.21,2974.86,3419.29,599.78,581.58,12.35,0000 0000 0000 0000 000000
2018-05-26 10:43:20,0.00,0.22,0.00,31.85,34.97,37.47,13.54,47.34,1022.00,1992.07,3284.04,2974.57,3419.06,599.93,581.78,12.40,0000 0000 0000 0000 000000
2018-05-26 10:48:21,0.00,0.22,0.00,31.88,34.99,37.47,13.59,47.27,1021.99,1992.04,3284.04,2974.41,3419.01,600.40,582.12,12.46,0000 0000 0000 0000 000000
2018-05-26 10:53:22,0.00,0.22,0.00,31.92,35.00,37.49,13.65,47.30,1021.99,1992.02,3284.00,2974.15,3419.00,600.36,582.00,12.51,0000 0000 0000 0000 000000
2018-05-26 10:58:23,0.00,0.22,0.00,31.94,35.02,37.51,13.50,47.27,1021.99,1992.01,3284.00,2974.03,3419.00,600.07,581.62,12.56,0000 0000 0000 0000 000000
2018-05-26 11:03:24,0.00,0.22,0.00,31.95,35.04,37.54,13.54,47.23,1021.99,1992.00,3284.00,2974.00,3418.98,600.07,581.64,12.61,0000 0000 0000 0000 000000
2018-05-26 11:08:26,0.00,0.22,0.00,31.95,35.05,37.57,13.62,47.23,1021.99,1992.00,3283.95,2974.00,3418.74,600.34,581.93,12.66,0000 0000 0000 0000 000000
2018-05-26 11:13:27,0.01,0.22,0.00,31.96,35.07,37.61,13.50,47.32,1021.99,1992.00,3283.74,2973.98,3418.21,599.78,581.42,12.71,0000 0000 0000 0000 000000
2018-05-26 11:18:28,0.00,0.22,0.00,31.95,35.09,37.63,13.58,47.31,1021.99,1992.00,3283.44,2973.94,3418.02,600.01,581.73,12.76,0000 0000 0000 0000 000000
2018-05-26 11:23:30,0.00,0.22,0.00,31.98,35.10,37.63,13.49,47.24,1021.99,1991.99,3283.34,2973.90,3418.02,599.90,581.43,12.81,0000 0000 0000 0000 000000
2018-05-26 11:28:31,-0.00,0.22,0.00,32.02,35.12,37.64,13.53,47.25,1021.99,1991.98,3283.09,2973.76,3418.00,599.98,581.54,12.86,0000 0000 0000 0000 000000
2018-05-26 11:33:32,0.01,0.22,0.00,32.05,35.14,37.65,13.56,47.18,1021.99,1991.97,3283.02,2973.40,3418.00,600.03,581.61,12.91,0000 0000 0000 0000 000000
2018-05-26 11:38:34,-0.00,0.22,0.00,32.09,35.15,37.67,13.52,47.19,1021.98,1991.91,3283.00,2973.10,3417.97,600.33,581.44,12.96,0000 0000 0000 0000 000000
2018-05-26 11:43:35,-0.01,0.22,0.00,32.11,35.17,37.69,13.55,47.19,1021.99,1991.73,3282.99,2973.00,3417.67,600.08,581.37,13.01,0000 0000 0000 0000 000000
2018-05-26 11:48:37,0.00,0.22,0.00,32.14,35.19,37.71,13.54,47.19,1021.99,1991.66,3282.96,2973.00,3417.33,599.97,581.25,13.06,0000 0000 0000 0000 000000
2018-05-26 11:53:38,-0.02,0.22,0.00,32.14,35.20,37.72,13.52,47.31,1021.99,1991.37,3282.64,2972.99,3417.05,599.91,581.08,13.11,0000 0000 0000 0000 000000
2018-05-26 11:58:39,-0.01,0.22,0.00,32.13,35.22,37.74,13.49,47.15,1021.99,1991.14,3282.14,2972.94,3417.00,599.72,580.83,13.16,0000 0000 0000 0000 000000
2018-05-26 12:03:40,-0.00,0.22,0.00,32.12,35.23,37.76,13.58,47.23,1021.99,1991.05,3282.02,2972.86,3417.00,600.31,581.59,13.21,0000 0000 0000 0000 000000
2018-05-26 12:08:42,0.00,0.22,0.00,32.10,35.25,37.79,13.53,47.17,1021.99,1991.01,3282.00,2972.65,3417.00,600.43,581.70,13.26,0000 0000 0000 0000 000000
2018-05-26 12:13:43,0.01,0.22,0.00,32.09,35.25,37.81,13.57,47.38,1021.99,1991.00,3282.00,2972.15,3416.87,599.85,581.18,13.31,0000 0000 0000 0000 000000
2018-05-26 12:18:44,0.01,0.22,0.00,32.07,35.27,37.82,13.53,47.34,1021.99,1991.00,3281.91,2972.02,3416.49,600.09,581.56,13.36,0000 0000 0000 0000 000000
2018-05-26 12:23:45,0.03,0.22,0.00,32.05,35.27,37.83,13.59,47.52,1021.99,1991.00,3280.99,2971.78,3415.98,599.98,581.42,13.41,0000 0000 0000 0000 000000
2018-05-26 12:28:47,0.03,0.22,0.00,32.05,35.28,37.83,13.55,47.22,1021.99,1991.00,3280.21,2971.16,3415.53,600.15,581.54,13.46,0000 0000 0000 0000 000000
2018-05-26 12:33:48,0.00,0.22,0.00,32.04,35.28,37.83,13.60,47.30,1021.99,1990.99,3280.00,2971.01,3415.07,600.15,581.67,13.51,0000 0000 0000 0000 000000
2018-05-26 12:38:49,0.01,0.22,0.00,32.05,35.30,37.85,13.54,47.13,1021.99,1990.97,3279.50,2970.92,3414.95,600.00,581.56,13.56,0000 0000 0000 0000 000000
2018-05-26 12:43:50,0.04,0.22,0.00,32.04,35.30,37.86,13.54,47.23,1021.99,1990.99,3278.88,2970.28,3414.28,600.11,581.48,13.61,0000 0000 0000 0000 000000
2018-05-26 12:48:51,0.01,0.23,0.00,32.03,35.30,37.85,13.52,47.29,1021.99,1990.98,3278.11,2970.00,3414.00,599.82,581.25,13.66,0000 0000 0000 0000 000000
2018-05-26 12:53:53,0.04,0.23,0.00,32.03,35.30,37.84,13.55,47.35,1021.98,1990.99,3277.58,2969.60,3413.49,599.85,581.31,13.71,0000 0000 0000 0000 000000